xian , China , ASIA

  • Tuesday
    June 19

      Cloudy

      70 °F

      Southeast

       

  • Wednesday
    June 20

    Sunny  Cloudy

    93 °F  70 °F

    East  East

    3~4L   3~4L 

  • Thursday
    June 21

    Overcast  Cloudy

    90 °F  68 °F

    Southwest  Southeast

       3~4L 

  • Friday
    June 22

    Cloudy  Sunny

    93 °F  70 °F

    Northeast  East

        

  • Saturday
    June 23

    Cloudy  Cloudy

    95 °F  68 °F

    East  East

        

  • Sunday
    June 24

    Light rain  Overcast

    90 °F  68 °F

    East  Northeast

        

  • Monday
    June 25

    Light rain  Light rain

    90 °F  68 °F

    Northeast  Northeast

    3~4L    

Date   Weather Temperature Humidity Total_rain Visibility Wind
23:00 Cloudy 73°F 73.9% 0mm 999.9km Northwest  0.4m/s
02:00 Cloudy 71°F 77.1% 0mm 999.9km Northeast  0.5m/s
05:00 Cloudy 70°F 75.6% 0mm 999.9km Northeast  0.7m/s
08:00 Cloudy 76°F 70.3% 0mm 999.9km Southeast  0.5m/s
11:00 Sunny 90°F 52.7% 0mm 999.9km Southeast  1.8m/s
14:00 Sunny 93°F 51.1% 0mm 999.9km Southeast  2.3m/s
17:00 Sunny 91°F 51.2% 0mm 999.9km Southeast  2.6m/s
20:00 Sunny 81°F 45.4% 0mm 999.9km Southeast  1.9m/s
23:00 Cloudy 75°F 67.9% 0mm 999.9km Southeast  1.8m/s
02:00 Cloudy 71°F 75.4% 0mm 999.9km Southeast  1.3m/s
05:00 Cloudy 70°F 78.1% 0mm 999.9km Southeast  1.1m/s
08:00 Cloudy 74°F 73.7% 0mm 999.9km Southeast  0.6m/s
11:00 Overcast 83°F 58.8% 0mm 999.9km Southeast  1.4m/s
14:00 Overcast 88°F 53.5% 0mm 999.9km Southeast  1.5m/s
17:00 Overcast 89°F 53.4% 0mm 999.9km Southeast  1.6m/s
20:00 Overcast 82°F 47.5% 0mm 999.9km Southeast  2.2m/s
23:00 Cloudy 75°F 76.4% 0mm 999.9km Southeast  1.4m/s
02:00 Cloudy 69°F 84.7% 0mm 999.9km Northeast  1.2m/s
05:00 Cloudy 69°F 83.8% 0mm 999.9km Northeast  1.1m/s
08:00 Cloudy 75°F 75.8% 0mm 999.9km Northeast  1.2m/s
11:00 Cloudy 87°F 63.6% 0mm 999.9km Southeast  1.1m/s
14:00 Cloudy 93°F 59% 0mm 999.9km Southeast  1.4m/s
17:00 Cloudy 92°F 60.5% 0mm 999.9km Southeast  2.1m/s
20:00 Cloudy 85°F 53.2% 0mm 999.9km Southeast  2.8m/s
23:00 Sunny 77°F 82.4% 0mm 999.9km Southeast  1.4m/s
02:00 Sunny 73°F 87.4% 0mm 999.9km Southeast  1.2m/s
05:00 Sunny 70°F 90.8% 0mm 999.9km Northeast  1.0m/s
08:00 Sunny 77°F 80.6% 0mm 999.9km Northeast  1.0m/s
11:00 Cloudy 89°F 66.8% 0mm 999.9km Southeast  1.3m/s
14:00 Cloudy 95°F 62.3% 0mm 999.9km Southeast  1.7m/s
17:00 Cloudy 94°F 63.2% 0mm 999.9km Southeast  1.9m/s
20:00 Cloudy 87°F 55.6% 0mm 999.9km Southeast  2.0m/s
23:00 Cloudy 77°F 77.6% 0mm 999.9km Southeast  1.3m/s
02:00 Cloudy 73°F 79.9% 0mm 999.9km Northeast  1.2m/s
05:00 Cloudy 70°F 80.8% 0mm 999.9km Northeast  1.4m/s
08:00 Cloudy 76°F 73% 0mm 999.9km Northeast  1.5m/s
11:00 Sunny 91°F 49.4% 0mm 999.9km Northeast  1.0m/s
14:00 Cloudy 89°F 47.8% 0mm 999.9km Southeast  1.5m/s
17:00 Overcast 86°F 46.2% 0mm 999.9km Southeast  2.1m/s
20:00 Light rain 83°F 44.7% 0.1mm 999.9km Southeast  2.2m/s
23:00 Overcast 80°F 65.7% 0mm 999.9km Southeast  2.9m/s
02:00 Overcast 69°F 84.7% 0mm 999.9km Northeast  1.2m/s
05:00 Overcast 73°F 73.9% 0mm 999.9km Southeast  1.1m/s
08:00 Overcast 77°F 71.8% 0mm 999.9km Northeast  0.9m/s
11:00 Light rain 84°F 69.7% 0.5mm 999.9km Northeast  3.2m/s
14:00 Light rain 90°F 66.4% 0.5mm 999.9km Southeast  1.3m/s
17:00 Moderate rain 79°F 69.7% 3.2mm 999.9km Northeast  3.7m/s
20:00 Light rain 71°F 60.4% 0.7mm 999.9km Southeast  2.5m/s
23:00 Light rain 69°F 89.9% 2.6mm 999.9km Northwest  1.5m/s
02:00 Light rain 72°F 89.6% 0.2mm 999.9km Southeast  0.8m/s
05:00 Light rain 72°F 89.6% 0.6mm 999.9km Northwest  0.5m/s